Regional Weather Roundup
Issued by NWS Burlington, VT

Home | Current Version | Previous Version | Text Only | Print | Product List | Glossary On
Versions: 1 2 3 4 5 6 7 8 9 10 11 12 13 14 15 16 17 18 19 20 21 22 23 24 25 26 27 28 29 30 31 32 33 34 35 36 37 38 39 40 41 42 43 44 45 46 47 48 49 50
000
ASUS41 KBTV 221510
RWRBTV
VERMONT REGIONAL WEATHER ROUNDUP
NATIONAL WEATHER SERVICE BURLINGTON VT
1000 AM EST MON DEC 22 2014

NOTE: "FAIR" INDICATES FEW OR NO CLOUDS BELOW 12,000 FEET WITH NO
SIGNIFICANT WEATHER AND/OR OBSTRUCTIONS TO VISIBILITY.

* THESE REPORTS ARE NOT UNDER NWS QUALITY CONTROL AND/OR DO NOT
  REPORT WEATHER SUCH AS PRECIPITATION AND FOG.

VTZ001>019-221600-
_____VERMONT_____


CITY           SKY/WX    TMP DP  RH WIND       PRES   REMARKS
BURLINGTON     CLOUDY    24  19  81 NW5       30.39R FOG
MONTPELIER     CLOUDY    25  22  88 CALM      30.39R
MORRISVILLE    CLOUDY    26  21  81 CALM      30.38S
ST. JOHNSBURY*   N/A     28  23  81 MISG      30.37R
LYNDONVILLE*   CLOUDY    27  21  80 CALM      30.37R
MIDDLEBURY*    CLOUDY    28  26  94 CALM      30.36F
RUTLAND*       CLOUDY    28  25  86 S3        30.35R
SPRINGFIELD    CLOUDY    30  27  88 CALM      30.39R
HIGHGATE*      FOG       19  18  94 CALM      30.41R VSB 1/2
NEWPORT*       CLOUDY    22  19  89 CALM      30.37S FOG
BENNINGTON     CLOUDY    33  28  81 N3        30.32S HAZE

_____LAKE CHAMPLAIN_____


CITY           SKY/WX    TMP DP  RH WIND       PRES   REMARKS
COLCHESTER RF*   N/A     25  25 100 NE8         N/A

$$

NYZ007-026>031-035-052-083-221600-
_____NORTHERN NEW YORK_____


CITY           SKY/WX    TMP DP  RH WIND       PRES   REMARKS
PLATTSBURGH    CLOUDY    19  18  95 NW5       30.40S FOG
SARANAC LAKE   MOSUNNY   21 N/A N/A NE5       30.25F
MASSENA        CLOUDY    20  15  81 E9        30.39S
OGDENSBURG*    PTSUNNY   21  19  93 E5        30.36R FOG
POTSDAM*       CLOUDY    16  16 100 E5        30.34S FOG
WATERTOWN      CLOUDY    29  21  72 NE5       30.31S
FT DRUM        CLOUDY    26  22  83 E5        30.29S
ALBANY         FLURRIES  31  24  75 N5        30.37R
GLENS FALLS    CLOUDY    29  24  82 E5        30.36S HAZE

$$
NHZ002-005-011-221600-
_____NEW HAMPSHIRE_____


CITY           SKY/WX    TMP DP  RH WIND       PRES   REMARKS
LEBANON        CLOUDY    30  25  81 CALM      30.38R
KEENE          CLOUDY    34  30  86 CALM      30.38R
MT WASHINGTON  PTSUNNY   18   3  53 W16         N/A  WCI   3
PLYMOUTH       CLOUDY    31  30  98 CALM      30.40R
WHITEFIELD     CLOUDY    27  23  85 CALM      30.35F

$$

_____REGIONAL QUEBEC LOCATIONS_____


CITY           SKY/WX    TMP DP  RH WIND       PRES   REMARKS
MONTREAL       LGT SNOW  19  16  86 NE9       30.43R FOG
QUEBEC CITY    FLURRIES  18  12  79 N5        30.45S
SHERBROOKE     CLOUDY    23  21  93 NE3       30.38S

_____REGIONAL ONTARIO LOCATIONS_____


CITY           SKY/WX    TMP DP  RH WIND       PRES   REMARKS
OTTAWA         CLOUDY    18  16  93 NE8       30.37S FOG

______KEY______
VSB  - VISIBILITY IN MILES
WCI  - WIND CHILL INDEX
HX   - HEAT INDEX
$$
NNNN



USA.gov is the U.S. government's official web portal to all federal, state and local government web resources and services.